Regional Weather Roundup
Issued by NWS

Home | Current Version | Previous Version | Graphics & Text | Print | Product List | Glossary On
Versions: 1 2 3 4 5 6 7 8 9 10 11 12 13 14 15 16 17 18 19 20 21 22 23 24 25 26 27 28 29 30 31 32 33 34 35 36 37 38 39 40 41 42 43 44 45 46 47 48 49 50
631
ASUS43 KOAX 211510
RWRNE

WEATHER ROUNDUP FOR NEBRASKA
NATIONAL WEATHER SERVICE OMAHA NE
900 AM CST SAT JAN 21 2017

NOTES: SATELLITE DATA IS BEING USED TO AUGMENT CLOUD COVER ABOVE
       12000 FEET.
       "FAIR" INDICATES FEW OR NO CLOUDS BELOW 12,000 FEET WITH NO
       SIGNIFICANT WEATHER AND/OR OBSTRUCTIONS TO VISIBILITY.

  * THESE STATIONS DO NOT REPORT WEATHER SUCH AS RAIN...SNOW OR FOG.

NEZ001>004-019>022-054>056-211600-
NEBRASKA PANHANDLE

CITY           SKY/WX    TMP DP  RH WIND       PRES   REMARKS
SCOTTSBLUFF    CLEAR     21  16  81 NW5       29.41R WCI  15
ALLIANCE       CLEAR     16  13  88 W6        29.39R WCI   7
CHADRON        FOG       26  25  96 W9        29.40R VSB 1/4 WCI  17
KIMBALL        CLEAR     25  23  93 W3        29.39R
SIDNEY         CLEAR     22  19  89 W8        29.40R WCI  12
$$

NEZ057>060-069>072-079>082-211600-
SOUTHWEST NEBRASKA

CITY           SKY/WX    TMP DP  RH WIND       PRES   REMARKS
NORTH PLATTE   CLEAR     27  25  92 NW3       29.42S
IMPERIAL       CLEAR     29  23  78 W5        29.43R WCI  24
LEXINGTON      CLEAR     30  29  96 CALM      29.43R FOG
MCCOOK         CLEAR     29  27  92 W8        29.45R WCI  21
OGALLALA       CLEAR     26  24  91 W5        29.42R WCI  21
$$

NEZ005>010-023>029-035>040-094-211600-
NORTH CENTRAL NEBRASKA

CITY           SKY/WX    TMP DP  RH WIND       PRES   REMARKS
VALENTINE      CLEAR     30  27  88 SW9       29.38R WCI  22
AINSWORTH      CLOUDY    32  32 100 W7        29.38R WCI  25
BROKEN BOW     CLEAR     34  32  92 CALM      29.40S
O`NEILL        PTCLDY    33  32  95 W6        29.38R WCI  28
ORD            CLEAR     35  31  85 SW12      29.41R WCI  27
THEDFORD       CLEAR     31  30  96 CALM      29.40R
$$

NEZ041-046>049-061>064-073>077-083>087-211600-
SOUTH CENTRAL NEBRASKA

CITY           SKY/WX    TMP DP  RH WIND       PRES   REMARKS
GRAND ISLAND   CLOUDY    34  34 100 W10       29.44R WCI  26
AURORA         PTSUNNY   33  33 100 W9        29.44R WCI  26
HASTINGS       SUNNY     34  32  92 W6        29.44S WCI  29
HEBRON         SUNNY     33  33 100 CALM      29.45S
HOLDREGE       CLEAR     32  31  96 W7        29.43S WCI  26
KEARNEY *      CLEAR     34 -17  11 W6        29.43S WCI  29
YORK           SUNNY     34  34 100 W10       29.45R WCI  26
$$

NEZ011>018-030>034-042>045-211600-
NORTHEAST NEBRASKA

CITY           SKY/WX    TMP DP  RH WIND       PRES   REMARKS
NORFOLK        PTCLDY    34  31  88 SW6       29.39R WCI  29
ALBION         MOCLDY   N/A N/A N/A SW3       29.41
BLAIR          FOG       36  36  99 SW8       29.42R VSB 1/4 WCI  30
FREMONT        FOG       35  35 100 W5        29.43R VSB 1/2 WCI  30
TEKAMAH        FOG       35  34  96 SW7       29.41R VSB 1/2 WCI  29
WAYNE          MOSUNNY   36  35  96 W3        29.38R
$$

NEZ050>053-065>068-078-088>093-211600-
SOUTHEAST NEBRASKA

CITY           SKY/WX    TMP DP  RH WIND       PRES   REMARKS
LINCOLN        SUNNY     35  34  96 CALM      29.46R
OMAHA EPPLEY   CLOUDY    40  36  86 SW7       29.43R FOG
BEATRICE       SUNNY     35  35 100 NW3       29.45S
FALLS CITY     CLOUDY    39  39 100 SW12      29.46R FOG     WCI  32
NEBRASKA CITY  FOG       36  36 100 W13       29.44R VSB 1/4 WCI  27
PLATTSMOUTH    FOG       36  34  93 SW8       29.44R VSB 1/4 WCI  29
$$

NEZ044-045-051>053-067-211600-
OMAHA AREA

CITY           SKY/WX    TMP DP  RH WIND       PRES   REMARKS
OMAHA EPPLEY   CLOUDY    40  36  86 SW7       29.43R FOG
BLAIR          FOG       36  36  99 SW8       29.42R VSB 1/4 WCI  30
FREMONT        FOG       35  35 100 W5        29.43R VSB 1/2 WCI  30
MILLARD        CLOUDY    38  38  97 CALM      29.44R FOG
OFFUTT AFB     FOG       37  37 100 SW8       29.44R VSB 3/4 WCI  30
PLATTSMOUTH    FOG       36  34  93 SW8       29.44R VSB 1/4 WCI  29
WAHOO          FAIR      35  35  98 CALM      29.43R
$$




USA.gov is the U.S. government's official web portal to all federal, state and local government web resources and services.